Wind_Speed
37 37 38 38 38 38 38 38 38 39 39 40 41 42 43 43 43 43 44 44 45 45 47 47 48 49 49 49 49 49 49 49 49 49 48 48 48 48 47 47 47 47 47
36 38 38 38 38 38 38 38 39 39 39 40 42 43 44 44 45 45 45 46 46 47 48 49 50 50 51 50 51 51 51 51 51 51 51 51 50 49 48 48 48 48 48
37 38 38 38 38 37 38 39 39 40 40 41 43 44 44 46 46 46 46 47 48 49 49 50 50 51 52 52 51 52 52 51 51 52 52 52 51 51 50 49 49 49 50
37 38 38 38 38 38 39 40 40 41 41 42 44 45 46 47 47 48 48 48 48 49 50 50 51 52 52 53 52 52 53 54 53 53 53 53 53 52 52 50 50 49 50
38 38 39 39 39 39 39 40 41 42 43 44 45 46 47 47 48 48 49 49 49 50 51 51 52 52 52 53 53 54 54 54 54 53 53 53 53 53 53 52 50 50 50
38 39 39 40 40 40 40 41 42 43 43 44 45 46 47 47 48 48 49 50 50 50 52 52 52 52 52 53 53 54 54 54 54 54 54 54 54 53 53 53 53 52 51
38 39 39 40 40 41 42 42 43 43 43 45 46 46 47 48 49 49 50 51 52 51 51 51 51 51 51 52 53 53 54 54 54 54 54 54 54 54 54 54 55 55 53
39 39 40 40 41 41 43 43 44 44 45 46 47 48 48 49 49 50 50 51 51 51 50 51 51 51 51 51 52 53 54 54 54 54 54 53 54 54 54 54 55 55 54
39 40 41 41 42 42 43 44 45 45 46 47 47 48 48 48 49 49 50 50 50 50 50 51 51 51 51 51 51 52 53 54 54 54 54 53 53 53 52 53 54 56 55
40 40 40 41 42 43 44 45 45 46 46 46 47 47 47 48 48 49 49 50 50 50 49 50 50 50 51 52 52 51 51 52 52 53 53 53 53 52 52 52 53 53 53
41 41 41 42 43 44 44 45 45 46 46 46 46 47 48 48 48 49 49 49 49 49 49 49 50 51 52 52 52 51 51 51 51 52 53 53 53 53 52 51 50 50 51
41 41 41 42 43 44 44 45 45 45 45 46 46 47 47 47 48 48 48 48 49 49 49 50 50 51 51 52 52 52 51 52 52 52 53 52 52 52 52 50 50 50 51
41 42 42 43 44 45 45 44 45 45 45 46 46 46 46 46 47 47 47 48 49 49 50 50 50 51 51 51 51 51 51 51 52 52 52 52 52 52 52 51 50 50 50
42 42 43 44 45 45 44 44 44 44 44 44 45 45 45 45 46 46 47 48 49 50 50 50 49 50 50 50 50 50 50 51 51 51 52 52 52 52 51 51 50 49 49
43 43 43 44 44 43 43 44 44 44 44 44 43 43 44 44 44 45 47 48 49 49 50 50 50 49 49 50 50 50 50 51 51 51 51 52 51 51 51 51 51 50 49
44 44 44 43 43 43 43 43 43 43 42 43 43 43 44 44 44 45 47 48 48 48 49 49 50 49 49 49 50 51 50 50 50 50 50 51 51 51 50 51 51 50 49
43 43 42 42 42 42 42 42 42 42 42 43 43 43 44 44 45 45 46 47 47 48 49 49 50 49 49 49 50 51 50 49 50 49 49 49 49 49 49 49 50 50 49
42 41 42 42 42 42 42 42 42 42 43 43 44 44 44 44 45 46 47 48 48 49 49 49 49 49 49 48 49 49 49 49 48 48 48 47 46 46 47 48 49 48 47
41 41 42 41 41 41 40 41 41 42 42 42 43 44 45 45 45 46 47 49 49 49 48 48 48 48 48 48 48 48 47 47 46 46 46 45 44 44 44 44 44 43 43
40 41 41 41 40 40 40 40 40 41 41 42 43 44 45 45 45 46 47 47 47 47 47 46 47 47 47 47 47 47 47 46 45 44 43 43 42 41 41 40 40 40 40
40 40 41 41 39 39 39 40 41 42 42 43 43 44 44 45 45 45 46 47 47 47 46 47 47 46 46 46 46 46 45 44 43 42 41 40 39 38 38 39 38 38 38
39 40 40 39 39 40 40 40 41 42 42 43 43 43 44 44 44 45 45 46 46 46 46 46 45 45 45 45 45 45 44 42 41 40 39 37 37 36 37 37 36 37 37
38 39 39 39 40 40 40 40 41 42 42 42 42 43 43 44 44 45 45 45 46 45 45 44 43 43 43 42 42 41 40 39 38 38 37 36 35 35 35 35 35 35 35
38 38 38 38 39 40 40 41 42 42 42 42 42 42 42 43 44 44 44 44 44 43 43 42 42 41 39 39 38 37 36 35 35 35 34 33 33 33 33 33 32 32 32
38 38 38 38 39 40 41 41 41 41 41 42 42 41 42 42 43 43 43 42 41 42 41 40 38 36 35 34 34 33 31 31 31 31 31 31 32 32 32 31 31 30 30
38 39 39 39 39 40 40 41 41 41 41 42 42 42 42 42 41 41 40 39 39 38 38 36 35 34 32 31 30 29 28 28 28 28 28 29 29 28 28 29 29 29 29
Wind_Direction
275 275 275 275 275 275 276 276 277 275 273 270 268 266 266 266 266 266 266 268 269 270 271 271 271 271 270 270 271 271 271 272 272 272 272 272 273 273 274 273 273 273 273
275 276 275 275 275 275 275 275 276 275 274 272 270 268 267 267 266 266 267 269 270 271 271 272 272 271 271 271 271 271 271 271 271 272 272 272 272 273 274 274 273 273 273
277 277 276 274 274 274 275 275 275 275 275 274 272 270 269 268 267 267 268 270 271 272 273 273 272 271 271 272 272 272 272 271 271 271 272 272 272 273 272 273 274 274 273
276 276 275 274 274 274 274 275 275 275 275 275 274 273 271 269 268 268 268 270 272 273 273 273 272 271 272 272 272 271 272 272 272 271 272 272 273 273 273 273 275 275 274
278 277 276 275 274 273 274 275 276 276 276 276 275 274 273 272 270 269 270 271 274 275 274 274 273 271 272 272 272 271 272 272 272 272 271 272 272 273 274 273 273 275 275
277 277 276 275 274 274 274 275 276 277 277 276 276 275 274 273 273 272 271 272 274 276 275 275 274 272 272 272 272 271 272 272 272 272 271 271 272 272 273 273 273 274 275
276 277 277 276 275 275 275 275 275 277 278 277 276 276 275 275 275 274 273 274 275 276 275 275 275 273 273 273 272 272 272 272 272 272 272 272 272 273 273 273 273 274 274
277 277 276 276 276 276 276 276 276 277 278 278 278 277 276 276 276 276 275 275 275 275 276 275 275 274 274 273 273 272 272 271 272 272 271 272 272 272 273 274 274 274 273
278 278 277 277 277 277 277 276 277 278 279 278 278 278 277 278 278 277 276 276 276 276 276 275 275 275 275 275 275 274 272 272 272 272 271 271 271 272 273 274 274 274 274
277 279 279 278 277 278 277 277 278 279 279 279 278 278 278 278 278 277 276 276 277 277 276 276 275 275 276 277 277 275 273 272 272 272 272 272 272 272 272 273 274 274 274
280 280 280 279 279 280 279 279 279 279 279 279 279 278 278 278 277 277 277 276 276 276 276 277 277 277 277 277 278 277 275 273 273 272 272 272 272 271 271 273 273 273 273
281 281 281 280 280 281 280 280 280 280 280 280 280 280 279 279 278 278 277 276 277 277 277 278 278 279 279 278 278 277 275 274 274 273 273 272 272 270 270 271 273 272 271
282 281 280 280 281 281 281 281 281 282 282 282 281 280 280 279 279 278 277 277 278 278 279 279 279 280 280 279 278 277 276 275 275 275 274 273 272 271 269 270 271 271 271
282 282 281 281 281 281 281 281 282 282 282 283 282 281 281 281 280 279 278 279 279 279 280 280 281 281 281 280 279 277 277 277 277 276 276 275 273 271 269 269 270 270 271
281 282 282 282 282 281 281 282 282 282 282 283 283 283 283 282 281 281 280 280 280 280 281 281 281 282 281 281 280 278 277 277 278 277 277 276 274 272 269 268 268 270 270
282 282 282 281 281 281 282 283 283 283 283 283 284 284 284 283 282 282 281 281 281 281 282 282 282 282 282 281 280 279 278 278 278 278 277 276 274 271 269 269 269 270 271
281 281 282 283 282 282 282 283 283 283 283 283 284 285 285 284 284 284 283 283 284 284 283 282 282 282 282 281 280 280 279 278 279 278 277 276 274 271 270 269 270 271 271
282 282 282 282 283 282 282 283 284 284 284 285 285 285 286 286 285 285 285 284 285 285 284 283 282 282 283 282 281 280 279 279 279 278 277 276 274 272 270 270 270 270 270
282 282 282 282 283 282 283 284 284 285 286 286 286 287 286 286 286 286 286 286 286 285 286 285 284 283 283 283 281 280 280 279 279 278 276 275 274 272 271 271 271 270 269
280 281 282 283 283 282 283 284 285 287 287 288 288 288 288 287 288 288 288 287 286 286 286 285 285 285 284 282 282 280 279 278 278 277 276 275 273 272 271 271 271 270 269
280 281 282 283 283 283 284 285 286 288 289 289 289 289 289 289 290 291 290 289 289 288 288 288 286 285 284 283 281 280 278 278 278 277 276 275 273 271 269 269 269 269 268
280 281 281 281 282 284 285 286 287 289 290 290 290 290 291 291 291 291 291 291 290 290 289 288 286 285 284 282 280 279 278 277 277 276 274 273 271 269 267 267 268 268 268
280 281 282 282 284 285 286 288 289 290 291 291 291 291 292 292 292 292 292 291 290 290 289 288 287 286 284 282 281 279 278 277 275 274 272 271 269 267 267 267 267 267 267
281 281 282 283 284 286 288 290 291 291 291 292 292 292 293 294 294 294 293 292 290 290 290 289 287 285 284 283 281 279 277 276 275 274 271 270 269 268 268 266 265 266 266
279 281 283 284 285 286 289 290 290 290 291 292 293 293 294 294 295 295 294 293 291 291 291 289 287 284 283 283 281 280 278 278 277 273 270 268 268 268 266 264 264 265 265
280 282 283 284 285 287 288 289 290 291 292 292 293 294 295 295 295 295 295 294 293 292 291 290 287 285 284 282 280 279 279 279 279 275 271 269 268 267 265 263 263 263 263
Height
5727 5727 5727 5727 5727 5727 5727 5726 5726 5725 5725 5726 5727 5728 5731 5732 5734 5735 5736 5737 5737 5737 5737 5737 5738 5738 5738 5739 5739 5739 5739 5739 5739 5739 5739 5739 5739 5739 5739 5739 5738 5739 5738
5718 5718 5718 5718 5718 5718 5718 5717 5717 5717 5716 5717 5718 5719 5721 5722 5723 5724 5724 5725 5725 5725 5725 5725 5725 5725 5725 5725 5726 5726 5726 5727 5726 5726 5725 5726 5727 5727 5726 5726 5726 5726 5726
5709 5709 5709 5709 5709 5709 5709 5709 5708 5708 5708 5708 5708 5709 5709 5710 5711 5712 5713 5713 5713 5712 5712 5712 5712 5712 5712 5712 5712 5712 5712 5713 5713 5712 5711 5711 5713 5714 5714 5713 5712 5712 5712
5701 5700 5700 5700 5700 5700 5700 5700 5699 5699 5698 5698 5698 5698 5698 5698 5699 5700 5701 5700 5699 5699 5699 5698 5698 5698 5698 5698 5698 5698 5698 5698 5699 5698 5697 5697 5697 5698 5699 5700 5699 5697 5697
5692 5691 5691 5691 5691 5690 5691 5690 5690 5689 5688 5688 5687 5687 5686 5687 5687 5687 5687 5687 5687 5686 5685 5684 5683 5683 5683 5683 5683 5683 5683 5683 5684 5684 5683 5683 5683 5682 5682 5685 5685 5684 5684
5682 5682 5682 5682 5682 5682 5681 5680 5680 5679 5678 5677 5676 5675 5675 5675 5675 5675 5675 5674 5674 5673 5672 5670 5669 5669 5669 5668 5668 5668 5668 5668 5668 5669 5668 5668 5668 5668 5668 5669 5670 5670 5670
5673 5673 5672 5672 5672 5672 5671 5670 5669 5669 5667 5666 5665 5664 5664 5663 5662 5662 5662 5661 5660 5659 5658 5657 5656 5655 5654 5654 5653 5653 5654 5653 5653 5654 5654 5653 5654 5653 5653 5653 5654 5654 5655
5663 5663 5663 5663 5662 5662 5661 5660 5659 5658 5657 5655 5653 5652 5651 5650 5649 5648 5648 5647 5646 5646 5645 5644 5642 5642 5641 5640 5639 5638 5638 5638 5638 5639 5639 5639 5639 5639 5638 5638 5638 5638 5640
5653 5653 5653 5652 5652 5651 5650 5649 5648 5647 5645 5643 5642 5640 5639 5637 5636 5635 5634 5633 5632 5632 5631 5630 5629 5628 5627 5626 5625 5624 5624 5623 5623 5623 5624 5624 5624 5624 5624 5623 5622 5622 5623
5644 5644 5643 5642 5641 5640 5639 5638 5637 5635 5633 5632 5630 5628 5627 5625 5623 5622 5621 5620 5619 5618 5618 5617 5616 5614 5613 5612 5611 5610 5609 5608 5608 5608 5609 5609 5610 5609 5609 5609 5608 5607 5607
5634 5633 5633 5632 5631 5629 5628 5626 5625 5623 5621 5619 5617 5616 5614 5612 5610 5609 5608 5607 5606 5605 5604 5603 5602 5601 5600 5598 5597 5595 5595 5594 5594 5594 5594 5594 5594 5595 5595 5594 5594 5593 5592
5625 5624 5623 5622 5620 5619 5617 5615 5613 5611 5609 5607 5605 5603 5601 5600 5598 5596 5595 5594 5593 5592 5591 5590 5588 5587 5585 5584 5583 5581 5580 5580 5580 5580 5579 5579 5579 5580 5580 5580 5580 5579 5578
5615 5614 5613 5612 5610 5608 5606 5604 5602 5600 5597 5595 5593 5591 5589 5587 5586 5584 5583 5582 5580 5579 5578 5576 5575 5573 5571 5570 5568 5567 5566 5566 5566 5565 5565 5565 5564 5565 5565 5565 5565 5565 5564
5605 5604 5602 5601 5599 5597 5595 5593 5591 5588 5586 5584 5581 5579 5577 5575 5573 5572 5570 5569 5568 5566 5565 5563 5561 5559 5557 5556 5554 5553 5552 5552 5551 5551 5550 5549 5549 5550 5550 5550 5551 5550 5550
5594 5593 5592 5590 5588 5586 5584 5582 5579 5577 5575 5573 5570 5568 5566 5563 5561 5560 5558 5557 5555 5553 5551 5549 5548 5545 5543 5542 5540 5539 5538 5538 5537 5536 5535 5534 5534 5534 5534 5535 5535 5536 5536
5583 5582 5580 5579 5577 5575 5573 5570 5568 5566 5564 5562 5559 5557 5555 5552 5550 5548 5546 5544 5543 5540 5538 5536 5534 5532 5530 5528 5526 5525 5524 5523 5522 5522 5521 5520 5519 5519 5519 5519 5520 5520 5521
5572 5571 5569 5567 5565 5563 5561 5559 5557 5555 5553 5551 5548 5545 5543 5541 5539 5536 5534 5532 5530 5527 5525 5522 5520 5518 5516 5513 5512 5510 5509 5509 5508 5507 5506 5505 5505 5504 5505 5505 5506 5506 5506
5561 5560 5558 5556 5554 5552 5550 5548 5546 5544 5542 5539 5537 5534 5532 5529 5527 5524 5521 5519 5516 5513 5511 5508 5506 5504 5502 5499 5497 5496 5495 5494 5493 5492 5491 5491 5491 5490 5491 5491 5492 5493 5493
5551 5549 5547 5545 5543 5541 5540 5538 5536 5533 5531 5528 5525 5523 5520 5517 5514 5511 5508 5505 5503 5500 5497 5495 5492 5490 5488 5485 5483 5481 5480 5480 5479 5478 5477 5477 5477 5477 5477 5478 5479 5480 5480
5540 5538 5536 5534 5532 5531 5529 5527 5525 5522 5519 5517 5514 5511 5508 5505 5502 5499 5495 5492 5489 5487 5484 5481 5479 5476 5474 5472 5469 5467 5467 5467 5466 5465 5464 5463 5463 5463 5464 5465 5466 5467 5468
5529 5527 5526 5524 5522 5520 5518 5516 5514 5511 5508 5505 5502 5499 5496 5493 5489 5486 5483 5480 5477 5474 5471 5469 5466 5463 5461 5458 5456 5454 5453 5453 5452 5452 5451 5451 5450 5451 5452 5453 5454 5455 5455
5518 5517 5515 5513 5511 5509 5507 5505 5503 5500 5497 5494 5491 5488 5484 5480 5477 5474 5470 5467 5464 5461 5458 5456 5453 5450 5447 5445 5443 5442 5441 5440 5439 5439 5439 5439 5439 5440 5440 5441 5442 5443 5444
5508 5506 5504 5503 5501 5499 5497 5494 5492 5489 5486 5483 5480 5476 5473 5469 5465 5462 5458 5455 5451 5448 5445 5442 5440 5438 5435 5433 5431 5430 5429 5428 5427 5427 5427 5427 5428 5428 5429 5430 5431 5432 5433
5497 5496 5494 5493 5490 5488 5485 5483 5480 5477 5474 5471 5468 5465 5461 5458 5454 5450 5446 5442 5439 5436 5433 5430 5427 5426 5424 5421 5420 5418 5418 5417 5416 5416 5416 5416 5417 5417 5418 5419 5420 5421 5423
5487 5485 5484 5482 5480 5477 5475 5472 5469 5466 5463 5460 5457 5453 5450 5446 5443 5438 5434 5430 5427 5423 5420 5418 5416 5414 5413 5411 5409 5408 5407 5406 5406 5405 5406 5406 5407 5408 5408 5409 5410 5412 5413
5476 5475 5473 5471 5469 5466 5464 5460 5457 5455 5452 5449 5446 5442 5439 5435 5431 5428 5424 5419 5416 5413 5409 5406 5405 5404 5403 5401 5400 5399 5398 5397 5397 5396 5397 5397 5398 5398 5399 5400 5401 5403 5404